Location: Nitra
(0.0000°N, 18.0833°E)
Time: 14:08:00
(UTC+02:00)

N. Korean satellite - Pass Details

Date: 01 May 2021
Orbit: 450 x 501 km, 97.2° (Epoch: 15 May)

Event Time Altitude Azimuth Distance (km) Brightness Sun altitude
Rises 05:59:24 0° 2° (N) 2,449 10.4 -11.0°
Reaches altitude 10° 06:01:28 10° 356° (N) 1,576 9.3 -10.5°
Maximum altitude 06:04:43 48° 281° (W) 596 6.6 -9.7°
Drops below altitude 10° 06:08:00 10° 205° (SSW) 1,578 8.8 -8.9°
Sets 06:10:04 0° 200° (SSW) 2,454 9.8 -8.4°
